Simultaneous Nadir Overpasses (SNOs) Predictions

Prediction of SNOs between TERRA and METOP-C Satellite Orbit:

Table of predicted SNOs for the next 14.0 days since TLE Epoch: 11/2/2019
Index Date (TERRA) Time (TERRA) Lat,Lon (TERRA) SZA (TERRA ) Date (METOP-C) Time (METOP-C) Lat,Lon (METOP-C) SZA (METOP-C ) Distance(km) Time Diff (sec)
1 11/02/2019 09:02:36 -81.33, -87.78 80.76 11/02/2019 09:02:27 -81.33, -87.76 80.77 0.69 9
2 11/02/2019 09:52:02 81.34, 79.95 99.27 11/02/2019 09:53:06 81.33, 80.13 99.32 3.03 64
3 11/05/2019 04:36:51 -81.33, -21.32 79.89 11/05/2019 04:36:48 -81.33, -21.18 79.88 2.39 3
4 11/05/2019 05:26:17 81.34, 146.39 100.14 11/05/2019 05:27:28 81.33, 146.35 100.16 0.93 71
5 11/07/2019 23:21:39 81.31,-122.90 100.88 11/07/2019 23:20:30 81.32,-123.09 100.83 3.24 69
6 11/08/2019 00:11:05 -81.33, 45.10 79.06 11/08/2019 00:11:09 -81.33, 45.02 79.07 1.62 4
7 11/10/2019 18:55:53 81.33, -56.18 101.72 11/10/2019 18:54:50 81.32, -56.09 101.69 1.57 63
8 11/10/2019 19:45:20 -81.33, 111.47 78.28 11/10/2019 19:45:30 -81.33, 111.60 78.26 2.11 10
9 11/13/2019 14:30:08 81.32, 10.12 102.45 11/13/2019 14:29:12 81.32, 10.14 102.42 0.29 56




NCC Satellite Simultaneous Nadir Overpasses (SNOs) Prediction Service
